DLH8021 KSLC-KBOI

Flight info

Callsign DLH8021
Flight time 0h 43m
Altitude 32000
Route CGULL1 TWF BROPH SPUUD4
Aircraft A346/H-SDE2E3FGHIJ3J4J5M1RWXY/LB1D1

Departure

Time 2026-05-08 04:10
Airport Salt Lake City International Airport (KSLC)

Arrival

Time 2026-05-08 04:53
Airport Boise Air Terminal/Gowen Field (KBOI)
Time Latitude Longitude Altitude Speed Heading
2026-05-08 03:29 40.78634 -111.98610 4239 ft 0 kts 175°
2026-05-08 03:29 40.78638 -111.98610 4239 ft 0 kts 175°
2026-05-08 03:51 40.78650 -111.98611 4239 ft 4 kts 181°
2026-05-08 03:51 40.78666 -111.98609 4237 ft 4 kts 196°
2026-05-08 03:51 40.78690 -111.98588 4237 ft 4 kts 235°
2026-05-08 03:51 40.78700 -111.98559 4240 ft 4 kts 258°
2026-05-08 03:52 40.78703 -111.98524 4239 ft 4 kts 265°
2026-05-08 03:52 40.78704 -111.98514 4239 ft 0 kts 265°
2026-05-08 03:56 40.78704 -111.98516 4239 ft 0 kts 265°
2026-05-08 03:56 40.78703 -111.98525 4239 ft 1 kts 265°
2026-05-08 03:56 40.78702 -111.98544 4239 ft 3 kts 265°
2026-05-08 03:56 40.78700 -111.98581 4239 ft 5 kts 265°
2026-05-08 03:57 40.78696 -111.98637 4239 ft 7 kts 265°
2026-05-08 03:57 40.78691 -111.98713 4239 ft 9 kts 265°
2026-05-08 03:57 40.78685 -111.98805 4240 ft 11 kts 265°
2026-05-08 03:57 40.78678 -111.98912 4239 ft 12 kts 264°
2026-05-08 03:58 40.78669 -111.99032 4239 ft 14 kts 265°
2026-05-08 03:58 40.78660 -111.99165 4239 ft 14 kts 265°
2026-05-08 03:58 40.78657 -111.99213 4239 ft 0 kts 264°
2026-05-08 03:59 40.78657 -111.99214 4239 ft 0 kts 264°
2026-05-08 03:59 40.78656 -111.99225 4239 ft 2 kts 264°
2026-05-08 03:59 40.78654 -111.99255 4240 ft 4 kts 264°
2026-05-08 04:00 40.78634 -111.99344 4240 ft 15 kts 221°
2026-05-08 04:00 40.78534 -111.99353 4240 ft 16 kts 176°
2026-05-08 04:00 40.78419 -111.99341 4240 ft 17 kts 175°
2026-05-08 04:00 40.78292 -111.99325 4239 ft 19 kts 176°
2026-05-08 04:01 40.78156 -111.99308 4239 ft 20 kts 172°
2026-05-08 04:01 40.78012 -111.99272 4258 ft 21 kts 171°
2026-05-08 04:01 40.77861 -111.99249 4259 ft 22 kts 177°
2026-05-08 04:01 40.77715 -111.99238 4259 ft 12 kts 172°
2026-05-08 04:02 40.77630 -111.99204 4259 ft 13 kts 172°
2026-05-08 04:02 40.77577 -111.99263 4259 ft 12 kts 265°
2026-05-08 04:02 40.77575 -111.99297 4259 ft 0 kts 265°
2026-05-08 04:07 40.77575 -111.99306 4262 ft 2 kts 264°
2026-05-08 04:07 40.77571 -111.99328 4262 ft 3 kts 252°
2026-05-08 04:08 40.77559 -111.99360 4262 ft 5 kts 241°
2026-05-08 04:08 40.77539 -111.99402 4263 ft 6 kts 235°
2026-05-08 04:08 40.77520 -111.99461 4263 ft 10 kts 258°
2026-05-08 04:08 40.77568 -111.99552 4264 ft 18 kts 347°
2026-05-08 04:09 40.77811 -111.99583 4262 ft 64 kts 355°
2026-05-08 04:09 40.78506 -111.99665 4239 ft 137 kts 355°
2026-05-08 04:09 40.79702 -111.99809 4249 ft 203 kts 354°
2026-05-08 04:09 40.81228 -112.00043 4710 ft 233 kts 353°
2026-05-08 04:10 40.82862 -112.00152 5778 ft 236 kts 359°
2026-05-08 04:10 40.84473 -112.00515 6889 ft 244 kts 336°
2026-05-08 04:10 40.85880 -112.01735 7599 ft 244 kts 313°
2026-05-08 04:10 40.86856 -112.03651 8105 ft 260 kts 295°
2026-05-08 04:11 40.87670 -112.05785 8657 ft 250 kts 304°
2026-05-08 04:11 40.88685 -112.07599 8854 ft 242 kts 301°
2026-05-08 04:11 40.89419 -112.09579 8954 ft 240 kts 293°
2026-05-08 04:11 40.90082 -112.11611 9271 ft 241 kts 294°
2026-05-08 04:12 40.90915 -112.13519 9190 ft 239 kts 306°
2026-05-08 04:12 40.91919 -112.15274 9130 ft 238 kts 307°
2026-05-08 04:12 40.92943 -112.17031 9079 ft 247 kts 307°
2026-05-08 04:12 40.94040 -112.18956 9293 ft 272 kts 307°
2026-05-08 04:13 40.95189 -112.21005 9869 ft 288 kts 306°
2026-05-08 04:13 40.96413 -112.23214 10396 ft 306 kts 306°
2026-05-08 04:13 40.97706 -112.25563 10852 ft 323 kts 306°
2026-05-08 04:13 40.99041 -112.28002 11570 ft 331 kts 305°
2026-05-08 04:14 41.00410 -112.30512 12327 ft 339 kts 305°
2026-05-08 04:14 41.01778 -112.33034 13258 ft 342 kts 305°
2026-05-08 04:14 41.03185 -112.35628 14230 ft 342 kts 305°
2026-05-08 04:14 41.04562 -112.38177 15076 ft 345 kts 305°
2026-05-08 04:15 41.06057 -112.40715 15849 ft 350 kts 311°
2026-05-08 04:15 41.07816 -112.42974 16640 ft 355 kts 319°
2026-05-08 04:15 41.09816 -112.44937 17439 ft 360 kts 325°
2026-05-08 04:15 41.11944 -112.46756 18212 ft 364 kts 327°
2026-05-08 04:16 41.14103 -112.48562 18874 ft 369 kts 327°
2026-05-08 04:16 41.16260 -112.50396 19529 ft 374 kts 326°
2026-05-08 04:16 41.18394 -112.52421 20218 ft 378 kts 323°
2026-05-08 04:16 41.20507 -112.54544 20901 ft 382 kts 323°
2026-05-08 04:17 41.22633 -112.56704 21571 ft 386 kts 323°
2026-05-08 04:17 41.24777 -112.58893 22232 ft 391 kts 322°
2026-05-08 04:17 41.26895 -112.61235 22886 ft 396 kts 320°
2026-05-08 04:17 41.28927 -112.63753 23517 ft 401 kts 317°
2026-05-08 04:18 41.30870 -112.66443 24064 ft 405 kts 314°
2026-05-08 04:18 41.32786 -112.69220 24677 ft 407 kts 314°
2026-05-08 04:18 41.34677 -112.71983 25333 ft 408 kts 314°
2026-05-08 04:18 41.36588 -112.74784 26026 ft 408 kts 314°
2026-05-08 04:19 41.38505 -112.77594 26643 ft 410 kts 314°
2026-05-08 04:19 41.40441 -112.80436 27182 ft 413 kts 313°
2026-05-08 04:19 41.42328 -112.83284 27732 ft 416 kts 313°
2026-05-08 04:19 41.44239 -112.86205 28308 ft 418 kts 313°
2026-05-08 04:20 41.46158 -112.89148 28890 ft 420 kts 313°
2026-05-08 04:20 41.48090 -112.92111 29464 ft 423 kts 313°
2026-05-08 04:20 41.50024 -112.95079 30041 ft 425 kts 313°
2026-05-08 04:20 41.51969 -112.98065 30515 ft 426 kts 313°
2026-05-08 04:21 41.53923 -113.01067 30994 ft 428 kts 313°
2026-05-08 04:21 41.55879 -113.04074 31473 ft 430 kts 313°
2026-05-08 04:21 41.57845 -113.07100 31833 ft 431 kts 313°
2026-05-08 04:21 41.59790 -113.10095 31860 ft 430 kts 313°
2026-05-08 04:22 41.63698 -113.16121 31913 ft 430 kts 312°
2026-05-08 04:22 41.67629 -113.22198 31916 ft 430 kts 312°
2026-05-08 04:23 41.71551 -113.28273 31921 ft 430 kts 312°
2026-05-08 04:23 41.75449 -113.34323 31924 ft 431 kts 312°
2026-05-08 04:24 41.79387 -113.40445 31932 ft 431 kts 312°
2026-05-08 04:24 41.83290 -113.46521 31924 ft 433 kts 312°
2026-05-08 04:25 41.87254 -113.52705 31945 ft 446 kts 312°
2026-05-08 04:25 41.91257 -113.58985 31933 ft 435 kts 311°
2026-05-08 04:26 41.95187 -113.65155 31948 ft 432 kts 311°
2026-05-08 04:26 41.99080 -113.71272 31943 ft 432 kts 311°
2026-05-08 04:27 42.03066 -113.77546 31939 ft 445 kts 311°
2026-05-08 04:27 42.07105 -113.83918 31948 ft 447 kts 311°
2026-05-08 04:28 42.11141 -113.90300 31949 ft 446 kts 311°
2026-05-08 04:28 42.15159 -113.96668 31843 ft 446 kts 311°
2026-05-08 04:29 42.17172 -113.99860 31575 ft 445 kts 311°
2026-05-08 04:29 42.19176 -114.03029 31324 ft 443 kts 311°
2026-05-08 04:29 42.21181 -114.06198 31074 ft 442 kts 311°
2026-05-08 04:29 42.23154 -114.09320 30813 ft 442 kts 311°
2026-05-08 04:30 42.25157 -114.12492 30562 ft 443 kts 311°
2026-05-08 04:30 42.27159 -114.15668 30326 ft 444 kts 311°
2026-05-08 04:30 42.29180 -114.18877 30079 ft 445 kts 311°
2026-05-08 04:30 42.31195 -114.22082 29804 ft 447 kts 311°
2026-05-08 04:31 42.33194 -114.25263 29543 ft 448 kts 311°
2026-05-08 04:31 42.35221 -114.28494 29278 ft 450 kts 311°
2026-05-08 04:31 42.37253 -114.31736 29001 ft 450 kts 311°
2026-05-08 04:31 42.39276 -114.34968 28722 ft 448 kts 311°
2026-05-08 04:32 42.41291 -114.38190 28550 ft 447 kts 311°
2026-05-08 04:32 42.43279 -114.41374 28294 ft 446 kts 311°
2026-05-08 04:32 42.45279 -114.44581 28023 ft 445 kts 311°
2026-05-08 04:32 42.47298 -114.47820 27762 ft 444 kts 311°
2026-05-08 04:33 42.49296 -114.51016 27493 ft 443 kts 311°
2026-05-08 04:33 42.51298 -114.54197 27193 ft 442 kts 311°
2026-05-08 04:33 42.53266 -114.57321 26744 ft 440 kts 311°
2026-05-08 04:33 42.55257 -114.60488 26213 ft 436 kts 311°
2026-05-08 04:34 42.57214 -114.63609 25732 ft 432 kts 311°
2026-05-08 04:34 42.59152 -114.66706 25262 ft 428 kts 311°
2026-05-08 04:34 42.61080 -114.69790 24791 ft 424 kts 311°
2026-05-08 04:34 42.63003 -114.72869 24335 ft 421 kts 310°
2026-05-08 04:35 42.64871 -114.75865 23864 ft 418 kts 310°
2026-05-08 04:35 42.66744 -114.78882 23376 ft 416 kts 310°
2026-05-08 04:35 42.68605 -114.81882 22843 ft 413 kts 310°
2026-05-08 04:35 42.70460 -114.84874 22378 ft 410 kts 310°
2026-05-08 04:36 42.72320 -114.87794 21918 ft 406 kts 312°
2026-05-08 04:36 42.74243 -114.90595 21466 ft 403 kts 313°
2026-05-08 04:36 42.76165 -114.93350 21010 ft 399 kts 313°
2026-05-08 04:36 42.78095 -114.96114 20561 ft 396 kts 313°
2026-05-08 04:37 42.79967 -114.98803 20125 ft 393 kts 313°
2026-05-08 04:37 42.81844 -115.01500 19673 ft 391 kts 313°
2026-05-08 04:37 42.83080 -115.03279 19404 ft 389 kts 313°
2026-05-08 04:37 42.84940 -115.05956 18970 ft 386 kts 313°
2026-05-08 04:38 42.86784 -115.08612 18550 ft 384 kts 313°
2026-05-08 04:38 42.88618 -115.11257 18098 ft 381 kts 313°
2026-05-08 04:38 42.90445 -115.13894 17654 ft 378 kts 313°
2026-05-08 04:38 42.92226 -115.16465 17209 ft 375 kts 313°
2026-05-08 04:39 42.94026 -115.19070 16765 ft 372 kts 313°
2026-05-08 04:39 42.95799 -115.21643 16326 ft 369 kts 313°
2026-05-08 04:39 42.97552 -115.24192 15883 ft 366 kts 313°
2026-05-08 04:39 42.99295 -115.26723 15465 ft 364 kts 313°
2026-05-08 04:40 43.01028 -115.29240 15046 ft 362 kts 313°
2026-05-08 04:40 43.02749 -115.31744 14626 ft 360 kts 313°
2026-05-08 04:40 43.04455 -115.34229 14202 ft 358 kts 313°
2026-05-08 04:40 43.06155 -115.36708 13787 ft 355 kts 313°
2026-05-08 04:41 43.07821 -115.39138 13353 ft 353 kts 313°
2026-05-08 04:41 43.09499 -115.41589 12918 ft 350 kts 313°
2026-05-08 04:41 43.11155 -115.44011 12498 ft 346 kts 312°
2026-05-08 04:41 43.12798 -115.46417 12091 ft 343 kts 312°
2026-05-08 04:42 43.14439 -115.48821 11679 ft 340 kts 312°
2026-05-08 04:42 43.16043 -115.51167 11446 ft 330 kts 312°
2026-05-08 04:42 43.17579 -115.53415 11349 ft 316 kts 312°
2026-05-08 04:42 43.19034 -115.55546 11239 ft 304 kts 312°
2026-05-08 04:43 43.20458 -115.57633 11125 ft 291 kts 312°
2026-05-08 04:43 43.21815 -115.59624 11031 ft 279 kts 312°
2026-05-08 04:43 43.23100 -115.61510 10936 ft 268 kts 311°
2026-05-08 04:43 43.24380 -115.63388 10693 ft 270 kts 311°
2026-05-08 04:44 43.25661 -115.65270 10449 ft 270 kts 311°
2026-05-08 04:44 43.26946 -115.67157 10224 ft 269 kts 312°
2026-05-08 04:44 43.28288 -115.68956 10056 ft 268 kts 315°
2026-05-08 04:44 43.29651 -115.70711 9951 ft 269 kts 315°
2026-05-08 04:45 43.31031 -115.72482 9614 ft 267 kts 315°
2026-05-08 04:45 43.32368 -115.74200 9283 ft 265 kts 315°
2026-05-08 04:45 43.33716 -115.75933 8944 ft 265 kts 315°
2026-05-08 04:45 43.35063 -115.77668 8634 ft 264 kts 315°
2026-05-08 04:46 43.36416 -115.79410 8456 ft 263 kts 315°
2026-05-08 04:46 43.37744 -115.81158 8391 ft 265 kts 313°
2026-05-08 04:46 43.38955 -115.83034 8211 ft 266 kts 309°
2026-05-08 04:46 43.40129 -115.84996 7917 ft 264 kts 309°
2026-05-08 04:47 43.41290 -115.86954 7616 ft 263 kts 309°
2026-05-08 04:47 43.42435 -115.88888 7366 ft 258 kts 310°
2026-05-08 04:47 43.43561 -115.90790 7108 ft 253 kts 310°
2026-05-08 04:47 43.44620 -115.92676 6835 ft 251 kts 307°
2026-05-08 04:48 43.45622 -115.94627 6526 ft 245 kts 306°
2026-05-08 04:48 43.46572 -115.96499 6342 ft 231 kts 306°
2026-05-08 04:48 43.47468 -115.98267 6159 ft 216 kts 307°
2026-05-08 04:48 43.48300 -115.99907 6013 ft 199 kts 307°
2026-05-08 04:49 43.49044 -116.01382 5825 ft 180 kts 305°
2026-05-08 04:49 43.49645 -116.02812 5629 ft 168 kts 299°
2026-05-08 04:49 43.50149 -116.04242 5430 ft 165 kts 298°
2026-05-08 04:49 43.50641 -116.05666 5234 ft 163 kts 298°
2026-05-08 04:50 43.51126 -116.07075 5029 ft 162 kts 298°
2026-05-08 04:50 43.51612 -116.08481 4832 ft 162 kts 298°
2026-05-08 04:50 43.52115 -116.09871 4577 ft 161 kts 297°
2026-05-08 04:50 43.52595 -116.11244 4294 ft 160 kts 296°
2026-05-08 04:51 43.53069 -116.12650 4020 ft 159 kts 295°
2026-05-08 04:51 43.53536 -116.14038 3847 ft 159 kts 296°
2026-05-08 04:51 43.54002 -116.15405 3649 ft 159 kts 296°
2026-05-08 04:51 43.54470 -116.16787 3472 ft 158 kts 296°
2026-05-08 04:52 43.54943 -116.18164 3268 ft 159 kts 295°
2026-05-08 04:52 43.55413 -116.19538 3082 ft 157 kts 294°
2026-05-08 04:52 43.55857 -116.20897 2911 ft 154 kts 293°
2026-05-08 04:52 43.56260 -116.22094 2862 ft 111 kts 295°
2026-05-08 04:53 43.56501 -116.22792 2861 ft 50 kts 296°
2026-05-08 04:53 43.56629 -116.23162 2856 ft 41 kts 295°
2026-05-08 04:53 43.56749 -116.23512 2852 ft 40 kts 296°
2026-05-08 04:53 43.56866 -116.23845 2853 ft 38 kts 295°
2026-05-08 04:54 43.56962 -116.24139 2849 ft 22 kts 294°
2026-05-08 04:54 43.57033 -116.24168 2849 ft 13 kts 52°
2026-05-08 04:54 43.57065 -116.24050 2850 ft 14 kts 75°
2026-05-08 04:54 43.57087 -116.23905 2848 ft 17 kts 80°
2026-05-08 04:55 43.57106 -116.23732 2851 ft 19 kts 82°
2026-05-08 04:55 43.57091 -116.23541 2846 ft 21 kts 108°
2026-05-08 04:55 43.57027 -116.23349 2845 ft 23 kts 116°
2026-05-08 04:55 43.56955 -116.23140 2845 ft 24 kts 115°
2026-05-08 04:56 43.56881 -116.22925 2848 ft 25 kts 115°
2026-05-08 04:56 43.56807 -116.22708 2853 ft 25 kts 115°
2026-05-08 04:56 43.56735 -116.22493 2855 ft 25 kts 114°
2026-05-08 04:56 43.56664 -116.22287 2855 ft 12 kts 115°
2026-05-08 04:57 43.56654 -116.22258 2857 ft 5 kts 115°
2026-05-08 04:57 43.56640 -116.22207 2853 ft 7 kts 105°
2026-05-08 04:57 43.56644 -116.22147 2860 ft 6 kts 55°
2026-05-08 04:57 43.56661 -116.22099 2864 ft 6 kts 83°
2026-05-08 04:58 43.56671 -116.22048 2861 ft 5 kts 52°
2026-05-08 04:58 43.56686 -116.22035 2860 ft 3 kts 32°
2026-05-08 04:58 43.56696 -116.22027 2862 ft 0 kts 28°